Regional Weather Roundup
Issued by NWS

Home | Current Version | Previous Version | Graphics & Text | Print | Product List | Glossary Off
Versions: 1 2 3 4 5 6 7 8 9 10 11 12 13 14 15 16 17 18 19 20 21 22 23 24 25 26 27 28 29 30 31 32 33 34 35 36 37 38 39 40 41 42 43 44 45 46 47 48 49 50

000
ASUS43 KMPX 221801
RWRMN
WEATHER ROUNDUP FOR MINNESOTA
NATIONAL WEATHER SERVICE TWIN CITIES/CHANHASSEN MN
100 PM CDT WED OCT 22 2014


NOTE: "FAIR" INDICATES FEW OR NO CLOUDS BELOW 12,000 FEET WITH NO
SIGNIFICANT WEATHER AND/OR OBSTRUCTIONS TO VISIBILITY. N/A MEANS
CURRENT SKY AND/OR WEATHER CONDITIONS ARE NOT AVAILABLE.

MNZ060>063-068>070-221900-
   Twin Cities Metro

CITY           SKY/WX    TMP DP  RH WIND       PRES   REMARKS
TWIN CITIES    CLOUDY    53  40  61 SE16      30.14F
6HR MIN TEMP:  39; 6HR MAX TEMP:  53;

ST PAUL        CLOUDY    54  41  61 S16G24    30.16F
CRYSTAL        CLOUDY    55  40  56 SE18G26   30.12F
BLAINE         CLOUDY    55  41  58 MISG      30.13
LAKEVILLE      CLOUDY    54  41  62 SE18      30.14F
EDEN PRAIRIE   CLOUDY    55  41  59 SE18G25   30.12F
6HR MIN TEMP:  40; 6HR MAX TEMP:  55;

SOUTH ST PAUL  CLOUDY    55  39  56 SE13G21   30.15F
LAKE ELMO      CLOUDY    52  41  66 S12G17    30.17F
$$
MNZ001>005-007-008-013>017-022>024-027-028-221900-
   Northwest Minnesota

CITY           SKY/WX    TMP DP  RH WIND       PRES   REMARKS
BEMIDJI        FAIR      60  43  53 S18G28    29.93F
HALLOCK        FAIR      63  46  55 S26       29.78F
ROSEAU         FAIR      64  46  52 S24G30    29.84F
WARROAD        FAIR      61  46  59 S12       29.86F
THIEF RVR FALL FAIR      63  45  51 S23G29    29.85F
CROOKSTON      FAIR      63  46  55 S25G36    29.84F
FOSSTON        FAIR      61  43  51 S21G26    29.89F
DETROIT LAKES  FAIR      57  45  62 S16G25    29.93S
MOORHEAD       FAIR      63  46  55 S26       29.88F
PARK RAPIDS    FAIR      57  41  55 S18G31    29.96F
MAHNOMEN       FAIR      60  44  55 S21       29.90S
$$
MNZ006-009>011-018-025>026-221900-
   North Central Minnesota

CITY           SKY/WX    TMP DP  RH WIND       PRES   REMARKS
BAUDETTE       FAIR      61  43  51 S17G31    29.90F
FLAG ISLAND    FAIR      52  45  76 S21       29.85F
INTL FALLS     FAIR      59  41  51 S14G29    29.98F
6HR MIN TEMP:  42; 6HR MAX TEMP:  59;

WASKISH        FAIR      61  45  55 S14G22    29.93F
BIG FORK       FAIR      57  41  54 S15G22    30.01F
LONGVILLE      FAIR      57  41  54 SE13G22   30.00F
GRAND RAPIDS   CLOUDY    54  39  58 S16G22    30.04F
CRANE LAKE     FAIR      55  39  54 SE13G20   30.06F
ORR            FAIR      57  37  47 S16G26    30.01F
COOK           FAIR      57  41  54 SE13G22   30.06F
WALKER         FAIR      55  40  57 S17G24    29.98F
$$
MNZ012-019>021-037-221900-
   Northeast Minnesota

CITY           SKY/WX    TMP DP  RH WIND       PRES   REMARKS
DULUTH         FAIR      55  38  52 S18       30.12F
6HR MIN TEMP:  39; 6HR MAX TEMP:  55;

ELY            FAIR      55  37  50 S12G23    30.10F
HIBBING        FAIR      57  39  51 S15G25    30.07F
EVELETH        FAIR      55  39  54 S16       30.10F
DULUTH HARBOR  FAIR      57  41  54 S8G14     30.15F
TWO HARBORS    FAIR      54  30  40 SE9       30.14F
SILVER BAY     FAIR      52  37  58 E7        30.16F
GRAND MARAIS     N/A     47  39  74 S8        30.23F
G MARAIS ARPRT FAIR      45  34  65 S10G17    30.20F
$$
MNZ029>031-032-039>041-046>048-054>057-064-221900-
   West Central Minnesota

CITY           SKY/WX    TMP DP  RH WIND       PRES   REMARKS
FERGUS FALLS   FAIR      61  41  48 S22G32    29.93F
WHEATON        FAIR      63  46  55 S17G26    29.92S
MORRIS         FAIR      64  46  52 S23G32    29.93S
ALEXANDRIA     FAIR      59  44  57 SE20G30   29.98F
ELBOW LAKE     FAIR      59  44  57 SE21G26   29.93S
WADENA         FAIR      57  43  58 S17G28    29.96F
GLENWOOD       FAIR      59  45  58 SE23      29.99F
APPLETON       FAIR      66  45  45 S16G22    29.94F
BENSON         FAIR      63  45  51 S16G26    29.96F
ORTONVILLE     FAIR      64  46  52 S18       29.93R
MADISON        FAIR      68  48  49 S16G26    29.94S
WILLMAR        FAIR      63  43  48 S17G31    30.01F
$$
MNZ033>034-036-042>043-049>051-058-059-221900-
   Central Minnesota

CITY           SKY/WX    TMP DP  RH WIND       PRES   REMARKS
ST CLOUD       FAIR      58  41  53 SE24      30.06F
6HR MIN TEMP:  43; 6HR MAX TEMP:  59;

SAUK CENTRE    FAIR      59  42  54 SE20G28   30.00F
PAYNESVILLE    FAIR      57  41  55 E20G28    30.02F
AITKIN         CLOUDY    55  43  62 S14G21    30.04F
PINE RIVER     FAIR      55  43  62 SE17G25   30.03F
BRAINERD       FAIR      54  40  59 S16G25    30.04F
STAPLES        FAIR      55  41  58 S14G21    29.99F
LONG PRAIRIE   FAIR      55  41  58 SE23G32   30.00F
LITTLE FALLS   FAIR      55  39  54 SE16      30.04F
LITCHFIELD     FAIR      61  43  51 SE15G25   30.04F
BUFFALO        FAIR      55  40  57 SE15G22   30.10F
MAPLE LAKE     FAIR      56  43  61 SE15G22   30.09F
$$
MNZ037-044-045-052-053-221900-
   East Central Minnesota

CITY           SKY/WX    TMP DP  RH WIND       PRES   REMARKS
PRINCETON      CLOUDY    54  41  62 SE13      30.11F
MORA           CLOUDY    50  37  62 SE9       30.14F
CAMBRIDGE      PTSUNNY   54  39  58 SE10      30.11F
RUSH CITY      CLOUDY    53  39  61 SE12G20   30.14F
MOOSE LAKE     PTSUNNY   54  37  54 S8G20     30.10F
HINCKLEY       CLOUDY    54  41  62 S15G21    30.13F
CLOQUET        PTSUNNY   55  37  50 S10G18    30.12F
MCGREGOR       CLOUDY    54  41  62 SE16G25   30.08F
$$
MNZ071>073-080-081-089-090-097-098-221900-
   Southwest Minnesota

CITY           SKY/WX    TMP DP  RH WIND       PRES   REMARKS
MONTEVIDEO     FAIR      66  46  48 SW15G24   29.97F
GRANITE FALLS  FAIR      65  46  48 SE22G29   29.99F
CANBY          FAIR      64  47  55 S13G21    29.95S
MARSHALL       FAIR      66  45  45 S22G29    29.95F
REDWOOD FALLS  PTSUNNY   65  44  46 S26G33    30.00F
OLIVIA         FAIR      63  43  48 S23G31    30.00F
PIPESTONE      FAIR      66  48  52 S24       29.97F
WINDOM         FAIR      64  45  48 S15G29    30.04S
WORTHINGTON    FAIR      64  45  48 S16G24    30.03F
JACKSON        FAIR      64  41  42 S20G25    30.06F
TRACY          FAIR      66  47  51 S20G31    29.98F
SLAYTON        FAIR      64  45  50 S24       30.00F
$$
MNZ065>067-074>077-082>085-091>093-221900-
   South Central Minnesota

CITY           SKY/WX    TMP DP  RH WIND       PRES   REMARKS
MANKATO        FAIR      61  39  44 SE20G28   30.10F
NEW ULM        FAIR      61  45  55 S24G31    30.05F
ST JAMES       FAIR      64  43  45 SE20G28   30.07F
FAIRMONT       PTSUNNY   61  39  44 S26       30.08F
GLENCOE        FAIR      61  44  54 SE20G28   30.07F
FARIBAULT      PTSUNNY   57  43  58 SE16G22   30.15F
OWATONNA       FAIR      55  41  58 S17G25    30.15F
WASECA         CLOUDY    55  37  50 SE17G24   30.15F
ALBERT LEA     FAIR      55  41  58 SE20G26   30.15F
$$
MNZ078>079-086>088-094>096-221900-
   Southeast Minnesota

CITY           SKY/WX    TMP DP  RH WIND       PRES   REMARKS
ROCHESTER      PTSUNNY   55  40  56 SE17G28   30.21F
6HR MIN TEMP:  37; 6HR MAX TEMP:  55;

STANTON        CLOUDY    56  40  56 S18       30.15F
DODGE CENTER   FAIR      55  41  58 S21       30.18F
WINONA         FAIR      55  37  50 S6        30.24F
AUSTIN         FAIR      54  39  58 S15G23    30.18F
PRESTON        CLOUDY    53  39  60 S17       30.22F
$$
ABBREVIATIONS USED IN REMARKS
   TC - TEMPERATURES IN CELSIUS
  WCI - WIND CHILL INDEX
   HX - HEAT INDEX
  VSB - VISIBILITY
$$



USA.gov is the U.S. government's official web portal to all federal, state and local government web resources and services.